Portada
METAR-TAF:

METAR-TAF

Aeroports :

Machala, Equador

latitud: 03-26-07S, longitud: 079-58-40W, altitud: 52 m

Observació

L'informe es va fer fa 10 hores i 1 minuts, a les 23:00 UTC
Vent calma
Temperatura 24°C
Humitat 83%
Pressió 1012 hPa
Visibilitat 10 km o més
Escasses núvols a una alçada de 1600 ft
Núvols disperses a una alçada de 8000 ft
Cel ennuvolat a una alçada de 20000 ft

METAR: SERO 052300Z 00000KT 9999 FEW016 SCT080 BKN200 24/21 Q1012

Hora: 04:01 (09:01 UTC)


TAF: manca

Observacions i pronòstics meteorològics de més de 4000 aeroports (METAR i TAF).

Les estacions disponibles són els punts grocs i vermells al mapa.

Posi el ratolí al punt desitjat per veure el nom de l'estació.

Feu clic per veure les observacions i els pronòstics meteorològics.

Per canviar el mapa: feu clic els botons verds amb una creu de color negre per apropar; al botó verd amb un guió per allunyar la imatge; o en les fletxes verdes per a mapes adjacents.


METAR-TAF: